| time (UTC) | temp C | wind direction | speed KPH | gust KPH | rain 1hr cm | rain 24hr cm | rain mn cm | humidity % | barometer mb |
| 20260506124520 | 9 | 102 | 1.6 | 3.2 | 0.00 | 0.00 | 0.00 | 94 | 1017.1 |
| 20260506124251 | 8 | 102 | 0.0 | 3.2 | 0.00 | 0.00 | 0.00 | 94 | 1017.0 |
| 20260506123520 | 8 | 102 | 0.0 | 1.6 | 0.00 | 0.00 | 0.00 | 94 | 1017.0 |
| 20260506123019 | 9 | 102 | 0.0 | 1.6 | 0.00 | 0.00 | 0.00 | 94 | 1016.9 |
| 20260506122520 | 9 | 102 | 0.0 | 1.6 | 0.00 | 0.00 | 0.00 | 94 | 1017.0 |
| 20260506122020 | 9 | 102 | 0.0 | 1.6 | 0.00 | 0.00 | 0.00 | 94 | 1017.2 |
| 20260506121519 | 9 | 102 | 0.0 | 3.2 | 0.00 | 0.00 | 0.00 | 94 | 1017.2 |
| 20260506121020 | 9 | 102 | 0.0 | 3.2 | 0.00 | 0.00 | 0.00 | 94 | 1017.1 |
| 20260506120519 | 9 | 102 | 0.0 | 1.6 | 0.00 | 0.00 | 0.00 | 93 | 1017.1 |
| 20260506120020 | 9 | 102 | 0.0 | 1.6 | 0.00 | 0.00 | 0.00 | 93 | 1017.2 |
| 20260506115518 | 9 | 102 | 0.0 | 3.2 | 0.00 | 0.00 | 0.00 | 94 | 1017.3 |
| 20260506115018 | 9 | 102 | 0.0 | 6.4 | 0.00 | 0.00 | 0.00 | 94 | 1017.2 |
| 20260506114519 | 9 | 102 | 1.6 | 6.4 | 0.00 | 0.00 | 0.00 | 94 | 1017.3 |
| 20260506114019 | 9 | 80 | 0.0 | 1.6 | 0.00 | 0.00 | 0.00 | 93 | 1017.3 |
| 20260506113518 | 9 | 80 | 0.0 | 1.6 | 0.00 | 0.00 | 0.00 | 93 | 1017.3 |
| 20260506113019 | 9 | 80 | 0.0 | 1.6 | 0.00 | 0.00 | 0.00 | 93 | 1017.4 |
| 20260506112518 | 9 | 80 | 0.0 | 0.0 | 0.00 | 0.00 | 0.00 | 93 | 1017.3 |
| 20260506112017 | 9 | 80 | 0.0 | 4.8 | 0.00 | 0.00 | 0.00 | 93 | 1017.3 |
| 20260506111518 | 9 | 80 | 1.6 | 4.8 | 0.00 | 0.00 | 0.00 | 93 | 1017.3 |
| 20260506111017 | 10 | 80 | 0.0 | 3.2 | 0.00 | 0.00 | 0.00 | 93 | 1017.3 |
| 20260506110516 | 10 | 80 | 0.0 | 3.2 | 0.00 | 0.00 | 0.00 | 93 | 1017.3 |
| 20260506110017 | 10 | 80 | 0.0 | 1.6 | 0.00 | 0.00 | 0.00 | 93 | 1017.2 |
| 20260506105518 | 10 | 80 | 0.0 | 1.6 | 0.00 | 0.00 | 0.00 | 94 | 1017.2 |
| 20260506105017 | 10 | 80 | 0.0 | 0.0 | 0.00 | 0.00 | 0.00 | 94 | 1017.3 |
| 20260506104517 | 10 | 80 | 0.0 | 0.0 | 0.00 | 0.00 | 0.00 | 94 | 1017.2 |
| 20260506104017 | 10 | 80 | 0.0 | 0.0 | 0.00 | 0.00 | 0.00 | 94 | 1017.2 |
| 20260506103515 | 10 | 80 | 0.0 | 0.0 | 0.00 | 0.00 | 0.00 | 93 | 1017.2 |
| 20260506103016 | 10 | 80 | 0.0 | 0.0 | 0.00 | 0.00 | 0.00 | 93 | 1017.3 |
| 20260506102516 | 10 | 80 | 0.0 | 0.0 | 0.00 | 0.00 | 0.00 | 93 | 1017.2 |
| 20260506102017 | 10 | 80 | 0.0 | 1.6 | 0.00 | 0.00 | 0.00 | 93 | 1017.2 |
| 20260506101755 | 10 | 80 | 0.0 | 1.6 | 0.00 | 0.00 | 0.00 | 93 | 1017.2 |
| 20260506101017 | 10 | 80 | 0.0 | 1.6 | 0.00 | 0.00 | 0.00 | 93 | 1017.1 |
| 20260506100517 | 10 | 80 | 0.0 | 3.2 | 0.00 | 0.00 | 0.00 | 93 | 1017.1 |
| 20260506100255 | 10 | 80 | 0.0 | 4.8 | 0.00 | 0.00 | 0.00 | 93 | 1017.1 |
| 20260506095753 | 10 | 80 | 1.6 | 4.8 | 0.00 | 0.00 | 0.00 | 93 | 1017.1 |
| 20260506095016 | 10 | 65 | 0.0 | 3.2 | 0.00 | 0.00 | 0.00 | 93 | 1017.1 |
| 20260506094515 | 10 | 63 | 0.0 | 3.2 | 0.00 | 0.00 | 0.00 | 93 | 1017.1 |
| 20260506094016 | 10 | 63 | 0.0 | 3.2 | 0.00 | 0.00 | 0.00 | 93 | 1017.1 |
| 20260506093515 | 10 | 63 | 1.6 | 4.8 | 0.00 | 0.00 | 0.00 | 93 | 1017.1 |
| 20260506093016 | 10 | 63 | 0.0 | 4.8 | 0.00 | 0.00 | 0.00 | 93 | 1017.1 |
| 20260506092517 | 10 | 58 | 1.6 | 3.2 | 0.00 | 0.00 | 0.00 | 93 | 1017.2 |
| 20260506092014 | 10 | 58 | 0.0 | 3.2 | 0.00 | 0.00 | 0.00 | 93 | 1017.2 |
| 20260506091514 | 10 | 58 | 0.0 | 3.2 | 0.00 | 0.00 | 0.00 | 93 | 1017.1 |
| 20260506091255 | 10 | 55 | 1.6 | 3.2 | 0.00 | 0.00 | 0.00 | 93 | 1017.2 |
| 20260506090514 | 10 | 38 | 0.0 | 1.6 | 0.00 | 0.00 | 0.00 | 92 | 1017.4 |
| 20260506090014 | 11 | 38 | 0.0 | 1.6 | 0.00 | 0.00 | 0.00 | 92 | 1017.4 |
| 20260506085515 | 11 | 38 | 0.0 | 6.4 | 0.00 | 0.00 | 0.00 | 92 | 1017.4 |
| 20260506085015 | 11 | 37 | 1.6 | 6.4 | 0.00 | 0.00 | 0.00 | 93 | 1017.3 |
| 20260506084514 | 11 | 34 | 0.0 | 3.2 | 0.00 | 0.00 | 0.00 | 93 | 1017.4 |
| 20260506084015 | 11 | 34 | 0.0 | 3.2 | 0.00 | 0.00 | 0.00 | 93 | 1017.5 |
| 20260506083544 | 11 | 34 | 0.0 | 0.0 | 0.00 | 0.00 | 0.00 | 92 | 1017.5 |
| 20260506083538 | 11 | 34 | 0.0 | 1.6 | 0.00 | 0.00 | 0.00 | 93 | 1017.5 |
| 20260506082514 | 11 | 34 | 0.0 | 1.6 | 0.00 | 0.00 | 0.00 | 92 | 1017.5 |
| 20260506082015 | 11 | 34 | 0.0 | 4.8 | 0.00 | 0.00 | 0.00 | 92 | 1017.6 |
| 20260506081516 | 11 | 32 | 0.0 | 4.8 | 0.00 | 0.00 | 0.00 | 92 | 1017.5 |
| 20260506081015 | 11 | 31 | 0.0 | 1.6 | 0.00 | 0.00 | 0.00 | 92 | 1017.5 |
| 20260506080514 | 11 | 31 | 0.0 | 0.0 | 0.00 | 0.00 | 0.00 | 92 | 1017.5 |
| 20260506073513 | 11 | 31 | 0.0 | 1.6 | 0.00 | 0.00 | 0.00 | 92 | 1017.4 |
| 20260506073014 | 11 | 31 | 0.0 | 1.6 | 0.00 | 0.00 | 0.00 | 92 | 1017.4 |
| 20260506072514 | 12 | 31 | 0.0 | 4.8 | 0.00 | 0.00 | 0.00 | 92 | 1017.4 |
| 20260506072014 | 12 | 31 | 0.0 | 4.8 | 0.00 | 0.00 | 0.00 | 92 | 1017.3 |
| 20260506071750 | 12 | 8 | 0.0 | 3.2 | 0.00 | 0.00 | 0.00 | 91 | 1017.4 |
| 20260506071027 | 12 | 7 | 0.0 | 3.2 | 0.00 | 0.00 | 0.00 | 91 | 1017.2 |
| 20260506071021 | 12 | 8 | 0.0 | 3.2 | 0.00 | 0.00 | 0.00 | 91 | 1017.3 |
| 20260506062511 | 12 | 303 | 0.0 | 3.2 | 0.00 | 0.00 | 0.00 | 90 | 1017.0 |
| 20260506062013 | 12 | 302 | 0.0 | 3.2 | 0.00 | 0.00 | 0.00 | 90 | 1017.0 |
| 20260506061513 | 12 | 300 | 0.0 | 3.2 | 0.00 | 0.00 | 0.00 | 90 | 1017.0 |
| 20260506061013 | 12 | 299 | 1.6 | 6.4 | 0.00 | 0.00 | 0.00 | 90 | 1016.9 |
| 20260506060512 | 12 | 295 | 0.0 | 6.4 | 0.00 | 0.00 | 0.00 | 90 | 1016.9 |
| 20260506051009 | 12 | 285 | 3.2 | 6.4 | 0.00 | 0.00 | 0.00 | 89 | 1016.6 |
| 20260506050512 | 12 | 290 | 1.6 | 4.8 | 0.00 | 0.00 | 0.00 | 89 | 1016.5 |
| 20260506045011 | 12 | 34 | 1.6 | 8.0 | 0.00 | 0.00 | 0.00 | 89 | 1016.4 |
| 20260506044510 | 12 | 303 | 1.6 | 8.0 | 0.00 | 0.00 | 0.00 | 88 | 1016.3 |
| 20260506044011 | 12 | 316 | 1.6 | 4.8 | 0.00 | 0.00 | 0.00 | 88 | 1016.3 |
| 20260506043510 | 12 | 310 | 0.0 | 8.0 | 0.00 | 0.00 | 0.00 | 88 | 1016.3 |
| 20260506043010 | 12 | 320 | 3.2 | 8.0 | 0.00 | 0.00 | 0.00 | 88 | 1016.2 |
| 20260506042510 | 12 | 307 | 1.6 | 6.4 | 0.00 | 0.00 | 0.00 | 88 | 1016.2 |
| 20260506042011 | 12 | 293 | 3.2 | 8.0 | 0.00 | 0.00 | 0.00 | 87 | 1016.2 |
| 20260506041509 | 13 | 288 | 3.2 | 8.0 | 0.00 | 0.00 | 0.00 | 87 | 1016.1 |
| 20260506041009 | 13 | 298 | 3.2 | 6.4 | 0.00 | 0.00 | 0.00 | 87 | 1016.0 |
| 20260506040511 | 13 | 288 | 1.6 | 8.0 | 0.00 | 0.00 | 0.00 | 87 | 1016.0 |
| 20260506040008 | 13 | 358 | 3.2 | 8.0 | 0.00 | 0.00 | 0.00 | 86 | 1015.9 |
| 20260506035507 | 13 | 261 | 1.6 | 8.0 | 0.00 | 0.00 | 0.00 | 86 | 1015.8 |
| 20260506035008 | 13 | 305 | 3.2 | 6.4 | 0.00 | 0.00 | 0.00 | 86 | 1015.7 |
| 20260506034507 | 13 | 286 | 1.6 | 6.4 | 0.00 | 0.00 | 0.00 | 85 | 1015.6 |
| 20260506034007 | 13 | 293 | 3.2 | 9.7 | 0.00 | 0.00 | 0.00 | 85 | 1015.6 |
| 20260506033513 | 13 | 292 | 1.6 | 9.7 | 0.00 | 0.00 | 0.00 | 85 | 1015.5 |
| 20260506033014 | 13 | 290 | 3.2 | 11.3 | 0.00 | 0.00 | 0.00 | 85 | 1015.5 |
| 20260506032745 | 13 | 293 | 3.2 | 11.3 | 0.00 | 0.00 | 0.00 | 84 | 1015.4 |
| 20260506032001 | 13 | 282 | 3.2 | 9.7 | 0.00 | 0.00 | 0.00 | 84 | 1015.3 |
| 20260506031732 | 13 | 298 | 1.6 | 19.3 | 0.00 | 0.00 | 0.00 | 84 | 1015.2 |
| 20260506030952 | 13 | 299 | 6.4 | 19.3 | 0.00 | 0.00 | 0.00 | 83 | 1015.0 |
| 20260506030728 | 13 | 279 | 3.2 | 9.7 | 0.00 | 0.00 | 0.00 | 83 | 1015.0 |
| 20260506025950 | 13 | 285 | 3.2 | 16.1 | 0.00 | 0.00 | 0.00 | 83 | 1014.9 |
| 20260506025720 | 13 | 323 | 4.8 | 16.1 | 0.00 | 0.00 | 0.00 | 82 | 1014.8 |
| 20260506024943 | 14 | 289 | 6.4 | 14.5 | 0.00 | 0.00 | 0.00 | 81 | 1014.8 |
| 20260506024718 | 14 | 276 | 3.2 | 17.7 | 0.00 | 0.00 | 0.00 | 80 | 1014.6 |
| 20260506024004 | 14 | 306 | 1.6 | 14.5 | 0.00 | 0.00 | 0.00 | 79 | 1014.6 |
| 20260506023952 | 14 | 313 | 6.4 | 17.7 | 0.00 | 0.00 | 0.00 | 80 | 1014.6 |
| 20260506022937 | 15 | 309 | 3.2 | 9.7 | 0.00 | 0.00 | 0.00 | 78 | 1014.6 |
| 20260506022714 | 15 | 341 | 4.8 | 9.7 | 0.00 | 0.00 | 0.00 | 77 | 1014.5 |
| 20260506021938 | 15 | 309 | 4.8 | 9.7 | 0.00 | 0.00 | 0.00 | 76 | 1014.5 |
| 20260506021435 | 15 | 288 | 4.8 | 17.7 | 0.00 | 0.00 | 0.00 | 75 | 1014.6 |
| 20260506020935 | 15 | 309 | 3.2 | 17.7 | 0.00 | 0.00 | 0.00 | 73 | 1014.5 |
| 20260506020434 | 16 | 286 | 4.8 | 16.1 | 0.00 | 0.00 | 0.00 | 72 | 1014.5 |
| 20260506015938 | 16 | 290 | 8.0 | 17.7 | 0.00 | 0.00 | 0.00 | 71 | 1014.3 |
| 20260506015438 | 16 | 317 | 3.2 | 17.7 | 0.00 | 0.00 | 0.00 | 70 | 1014.3 |
| 20260506014933 | 16 | 292 | 4.8 | 11.3 | 0.00 | 0.00 | 0.00 | 69 | 1014.2 |
| 20260506014707 | 16 | 266 | 4.8 | 16.1 | 0.00 | 0.00 | 0.00 | 68 | 1014.2 |
| 20260506014222 | 17 | 340 | 6.4 | 16.1 | 0.00 | 0.00 | 0.00 | 67 | 1014.2 |
| 20260506014216 | 17 | 336 | 3.2 | 17.7 | 0.00 | 0.00 | 0.00 | 67 | 1014.2 |
| 20260506012928 | 17 | 1 | 1.6 | 17.7 | 0.00 | 0.00 | 0.00 | 67 | 1014.1 |
| 20260506012429 | 17 | 295 | 4.8 | 22.5 | 0.00 | 0.00 | 0.00 | 66 | 1014.2 |
| 20260506011923 | 17 | 292 | 4.8 | 22.5 | 0.00 | 0.00 | 0.00 | 68 | 1014.2 |
| 20260506011425 | 17 | 319 | 6.4 | 19.3 | 0.00 | 0.00 | 0.00 | 67 | 1014.1 |
| 20260506011213 | 17 | 321 | 8.0 | 17.7 | 0.00 | 0.00 | 0.00 | 65 | 1014.2 |
| 20260506010928 | 17 | 285 | 6.4 | 19.3 | 0.00 | 0.00 | 0.00 | 66 | 1014.1 |
| 20260506005920 | 17 | 286 | 6.4 | 19.3 | 0.00 | 0.00 | 0.00 | 66 | 1014.1 |
| 20260506005413 | 18 | 306 | 8.0 | 19.3 | 0.00 | 0.00 | 0.00 | 65 | 1014.2 |
| 20260506004912 | 18 | 307 | 3.2 | 16.1 | 0.00 | 0.00 | 0.00 | 66 | 1014.1 |
| 20260506004415 | 18 | 17 | 4.8 | 16.1 | 0.00 | 0.00 | 0.00 | 66 | 1014.2 |
| 20260506003910 | 18 | 32 | 9.7 | 16.1 | 0.00 | 0.00 | 0.00 | 65 | 1014.1 |
| 20260506003409 | 18 | 347 | 3.2 | 9.7 | 0.00 | 0.00 | 0.00 | 66 | 1014.1 |
| 20260506002906 | 18 | 0 | 3.2 | 19.3 | 0.00 | 0.00 | 0.00 | 67 | 1014.0 |
| 20260506002407 | 18 | 62 | 6.4 | 19.3 | 0.00 | 0.00 | 0.00 | 67 | 1014.0 |
| 20260506001920 | 18 | 329 | 1.6 | 11.3 | 0.00 | 0.00 | 0.00 | 68 | 1013.9 |
| 20260506001403 | 18 | 0 | 4.8 | 16.1 | 0.00 | 0.00 | 0.00 | 69 | 1013.9 |
| 20260506000903 | 18 | 283 | 9.7 | 16.1 | 0.00 | 0.00 | 0.00 | 69 | 1013.9 |
| 20260506000405 | 18 | 306 | 6.4 | 16.1 | 0.00 | 0.00 | 0.00 | 69 | 1013.9 |
| 20260505235903 | 18 | 296 | 4.8 | 16.1 | 0.00 | 0.00 | 0.00 | 73 | 1013.9 |
| 20260505235403 | 18 | 296 | 4.8 | 17.7 | 0.00 | 0.00 | 0.00 | 71 | 1013.9 |
| 20260505234903 | 18 | 259 | 6.4 | 17.7 | 0.00 | 0.00 | 0.00 | 73 | 1013.9 |
| 20260505234403 | 18 | 272 | 8.0 | 16.1 | 0.00 | 0.00 | 0.00 | 72 | 1013.9 |
| 20260505233902 | 18 | 274 | 4.8 | 14.5 | 0.00 | 0.00 | 0.00 | 73 | 1013.9 |
| 20260505233403 | 18 | 307 | 6.4 | 16.1 | 0.00 | 0.00 | 0.00 | 73 | 1014.0 |
| 20260505232904 | 18 | 286 | 6.4 | 19.3 | 0.00 | 0.00 | 0.00 | 74 | 1014.0 |
| 20260505232404 | 17 | 306 | 8.0 | 19.3 | 0.00 | 0.00 | 0.00 | 74 | 1014.0 |
| 20260505231904 | 17 | 271 | 9.7 | 19.3 | 0.00 | 0.00 | 0.00 | 73 | 1013.9 |
| 20260505231405 | 17 | 272 | 4.8 | 20.9 | 0.00 | 0.00 | 0.00 | 74 | 1013.9 |
| 20260505230903 | 17 | 292 | 9.7 | 20.9 | 0.00 | 0.00 | 0.00 | 73 | 1014.0 |
| 20260505230403 | 17 | 303 | 6.4 | 20.9 | 0.00 | 0.00 | 0.00 | 74 | 1014.0 |
| 20260505225903 | 17 | 285 | 8.0 | 20.9 | 0.00 | 0.00 | 0.00 | 73 | 1014.1 |
| 20260505225634 | 17 | 306 | 6.4 | 17.7 | 0.00 | 0.00 | 0.00 | 74 | 1014.1 |
| 20260505225134 | 17 | 137 | 6.4 | 24.1 | 0.00 | 0.00 | 0.00 | 74 | 1014.2 |
| 20260505224402 | 17 | 309 | 6.4 | 24.1 | 0.00 | 0.00 | 0.00 | 73 | 1014.2 |
| 20260505223901 | 17 | 309 | 8.0 | 17.7 | 0.00 | 0.00 | 0.00 | 74 | 1014.3 |
| 20260505223401 | 17 | 314 | 8.0 | 17.7 | 0.00 | 0.00 | 0.00 | 73 | 1014.4 |
| 20260505223131 | 17 | 279 | 6.4 | 19.3 | 0.00 | 0.00 | 0.00 | 73 | 1014.3 |
| 20260505222401 | 17 | 299 | 9.7 | 20.9 | 0.00 | 0.00 | 0.00 | 73 | 1014.4 |
| 20260505221900 | 17 | 283 | 11.3 | 25.7 | 0.00 | 0.00 | 0.00 | 73 | 1014.5 |
| 20260505221646 | 17 | 259 | 12.9 | 25.7 | 0.00 | 0.00 | 0.00 | 71 | 1014.4 |
| 20260505220901 | 17 | 296 | 6.4 | 17.7 | 0.00 | 0.00 | 0.00 | 72 | 1014.4 |
| 20260505220401 | 17 | 259 | 8.0 | 17.7 | 0.00 | 0.00 | 0.00 | 73 | 1014.4 |
| 20260505215900 | 17 | 285 | 6.4 | 17.7 | 0.00 | 0.00 | 0.00 | 72 | 1014.5 |
| 20260505215359 | 17 | 290 | 9.7 | 17.7 | 0.00 | 0.00 | 0.00 | 71 | 1014.6 |
| 20260505214903 | 17 | 283 | 8.0 | 17.7 | 0.00 | 0.00 | 0.00 | 69 | 1014.8 |
| 20260505214402 | 17 | 307 | 4.8 | 16.1 | 0.00 | 0.00 | 0.00 | 70 | 1014.7 |
| 20260505213901 | 17 | 283 | 4.8 | 16.1 | 0.00 | 0.00 | 0.00 | 72 | 1014.7 |
| 20260505213403 | 17 | 250 | 6.4 | 17.7 | 0.00 | 0.00 | 0.00 | 73 | 1014.9 |
| 20260505212901 | 16 | 228 | 8.0 | 17.7 | 0.00 | 0.00 | 0.00 | 74 | 1014.8 |
| 20260505212401 | 16 | 250 | 6.4 | 24.1 | 0.00 | 0.00 | 0.00 | 74 | 1014.8 |
| 20260505212132 | 16 | 292 | 9.7 | 24.1 | 0.00 | 0.00 | 0.00 | 73 | 1014.7 |
| 20260505211401 | 17 | 171 | 8.0 | 20.9 | 0.00 | 0.00 | 0.00 | 72 | 1014.8 |
| 20260505211133 | 16 | 310 | 8.0 | 19.3 | 0.00 | 0.00 | 0.00 | 73 | 1014.9 |
| 20260505210400 | 16 | 269 | 8.0 | 19.3 | 0.00 | 0.00 | 0.00 | 74 | 1014.8 |
| 20260505205901 | 16 | 302 | 9.7 | 17.7 | 0.00 | 0.00 | 0.00 | 73 | 1015.0 |
| 20260505205634 | 16 | 272 | 6.4 | 19.3 | 0.00 | 0.00 | 0.00 | 73 | 1014.9 |
| 20260505204900 | 16 | 302 | 11.3 | 19.3 | 0.00 | 0.00 | 0.00 | 72 | 1014.8 |
| 20260505204401 | 16 | 296 | 6.4 | 20.9 | 0.00 | 0.00 | 0.00 | 71 | 1014.9 |
| 20260505203859 | 17 | 312 | 9.7 | 20.9 | 0.00 | 0.00 | 0.00 | 70 | 1014.9 |
| 20260505203401 | 17 | 283 | 11.3 | 20.9 | 0.00 | 0.00 | 0.00 | 69 | 1015.0 |
| 20260505202900 | 17 | 324 | 6.4 | 22.5 | 0.00 | 0.00 | 0.00 | 71 | 1014.9 |
| 20260505202400 | 17 | 344 | 11.3 | 22.5 | 0.00 | 0.00 | 0.00 | 72 | 1014.8 |
| 20260505201901 | 16 | 296 | 4.8 | 22.5 | 0.00 | 0.00 | 0.00 | 73 | 1014.8 |
| 20260505201359 | 16 | 258 | 9.7 | 22.5 | 0.00 | 0.00 | 0.00 | 72 | 1015.0 |
| 20260505200900 | 16 | 269 | 11.3 | 20.9 | 0.00 | 0.00 | 0.00 | 73 | 1014.9 |
| 20260505200359 | 16 | 237 | 12.9 | 20.9 | 0.00 | 0.00 | 0.00 | 72 | 1014.9 |
| 20260505195900 | 16 | 266 | 4.8 | 29.0 | 0.00 | 0.00 | 0.00 | 73 | 1014.9 |
| 20260505195400 | 16 | 290 | 6.4 | 29.0 | 0.00 | 0.00 | 0.00 | 73 | 1014.9 |
| 20260505194859 | 16 | 258 | 9.7 | 22.5 | 0.00 | 0.00 | 0.00 | 72 | 1014.9 |
| 20260505194400 | 16 | 320 | 11.3 | 24.1 | 0.00 | 0.00 | 0.00 | 71 | 1014.9 |
| 20260505193859 | 16 | 173 | 6.4 | 24.1 | 0.00 | 0.00 | 0.00 | 73 | 1014.8 |
| 20260505193629 | 16 | 295 | 11.3 | 25.7 | 0.00 | 0.00 | 0.00 | 73 | 1014.9 |
| 20260505192859 | 16 | 298 | 12.9 | 25.7 | 0.00 | 0.00 | 0.00 | 72 | 1014.9 |
| 20260505192357 | 17 | 259 | 6.4 | 25.7 | 0.00 | 0.00 | 0.00 | 71 | 1014.9 |
| 20260505191857 | 17 | 257 | 9.7 | 25.7 | 0.00 | 0.00 | 0.00 | 69 | 1015.0 |
| 20260505191357 | 18 | 302 | 6.4 | 16.1 | 0.00 | 0.00 | 0.00 | 70 | 1015.0 |
| 20260505190858 | 17 | 251 | 4.8 | 16.1 | 0.00 | 0.00 | 0.00 | 72 | 1015.0 |
| 20260505190357 | 17 | 306 | 6.4 | 17.7 | 0.00 | 0.00 | 0.00 | 73 | 1015.1 |
| 20260505185858 | 17 | 286 | 9.7 | 17.7 | 0.00 | 0.00 | 0.00 | 73 | 1015.2 |
| 20260505185356 | 17 | 293 | 6.4 | 17.7 | 0.00 | 0.00 | 0.00 | 73 | 1015.0 |
| 20260505185127 | 17 | 244 | 6.4 | 17.7 | 0.00 | 0.00 | 0.00 | 73 | 1015.0 |
| 20260505184356 | 17 | 288 | 8.0 | 17.7 | 0.00 | 0.00 | 0.00 | 74 | 1014.9 |
| 20260505183856 | 17 | 231 | 6.4 | 19.3 | 0.00 | 0.00 | 0.00 | 73 | 1015.0 |
| 20260505183357 | 17 | 289 | 8.0 | 19.3 | 0.00 | 0.00 | 0.00 | 73 | 1015.0 |
| 20260505182856 | 17 | 276 | 4.8 | 19.3 | 0.00 | 0.00 | 0.00 | 74 | 1014.9 |
| 20260505182358 | 17 | 279 | 3.2 | 19.3 | 0.00 | 0.00 | 0.00 | 75 | 1015.0 |
| 20260505182130 | 17 | 221 | 6.4 | 19.3 | 0.00 | 0.00 | 0.00 | 74 | 1015.0 |
| 20260505181358 | 17 | 283 | 6.4 | 16.1 | 0.00 | 0.00 | 0.00 | 73 | 1014.9 |
| 20260505180858 | 17 | 303 | 4.8 | 17.7 | 0.00 | 0.00 | 0.00 | 74 | 1014.9 |
| 20260505180355 | 17 | 302 | 6.4 | 17.7 | 0.00 | 0.00 | 0.00 | 73 | 1014.9 |
| 20260505180125 | 17 | 286 | 4.8 | 14.5 | 0.00 | 0.00 | 0.00 | 74 | 1014.9 |
| 20260505175625 | 16 | 176 | 4.8 | 19.3 | 0.00 | 0.00 | 0.00 | 75 | 1015.0 |
| 20260505174855 | 16 | 274 | 4.8 | 19.3 | 0.00 | 0.00 | 0.00 | 76 | 1014.9 |
| 20260505174355 | 16 | 309 | 6.4 | 16.1 | 0.00 | 0.00 | 0.00 | 75 | 1014.8 |
| 20260505173855 | 16 | 292 | 6.4 | 16.1 | 0.00 | 0.00 | 0.00 | 74 | 1014.9 |
| 20260505173355 | 16 | 0 | 6.4 | 9.7 | 0.00 | 0.00 | 0.00 | 74 | 1014.8 |
| 20260505172854 | 16 | 289 | 3.2 | 14.5 | 0.00 | 0.00 | 0.00 | 74 | 1014.7 |
| 20260505172356 | 16 | 279 | 4.8 | 14.5 | 0.00 | 0.00 | 0.00 | 75 | 1014.7 |
| 20260505171855 | 16 | 244 | 3.2 | 11.3 | 0.00 | 0.00 | 0.00 | 74 | 1014.6 |
| 20260505171356 | 16 | 237 | 3.2 | 11.3 | 0.00 | 0.00 | 0.00 | 76 | 1014.6 |
| 20260505170854 | 16 | 254 | 3.2 | 9.7 | 0.00 | 0.00 | 0.00 | 76 | 1014.6 |
| 20260505170633 | 16 | 245 | 3.2 | 11.3 | 0.00 | 0.00 | 0.00 | 76 | 1014.7 |
| 20260505165855 | 16 | 247 | 4.8 | 11.3 | 0.00 | 0.00 | 0.00 | 75 | 1014.8 |
| 20260505165354 | 16 | 305 | 4.8 | 8.0 | 0.00 | 0.00 | 0.00 | 76 | 1014.7 |
| 20260505164854 | 15 | 235 | 1.6 | 8.0 | 0.00 | 0.00 | 0.00 | 76 | 1014.8 |
| 20260505164354 | 15 | 209 | 3.2 | 8.0 | 0.00 | 0.00 | 0.00 | 76 | 1014.8 |
| 20260505163855 | 15 | 272 | 3.2 | 8.0 | 0.00 | 0.00 | 0.00 | 75 | 1014.9 |
| 20260505163357 | 15 | 271 | 4.8 | 8.0 | 0.00 | 0.00 | 0.00 | 74 | 1014.8 |
| 20260505162854 | 16 | 290 | 3.2 | 8.0 | 0.00 | 0.00 | 0.00 | 75 | 1014.7 |
| 20260505162353 | 15 | 216 | 3.2 | 6.4 | 0.00 | 0.00 | 0.00 | 77 | 1014.6 |
| 20260505161854 | 15 | 286 | 1.6 | 8.0 | 0.00 | 0.00 | 0.00 | 77 | 1014.6 |
| 20260505161353 | 15 | 240 | 3.2 | 9.7 | 0.00 | 0.00 | 0.00 | 76 | 1014.5 |
| 20260505160854 | 15 | 286 | 3.2 | 11.3 | 0.00 | 0.00 | 0.00 | 77 | 1014.5 |
| 20260505160353 | 15 | 302 | 6.4 | 11.3 | 0.00 | 0.00 | 0.00 | 78 | 1014.6 |
| 20260505153354 | 14 | 292 | 3.2 | 8.0 | 0.00 | 0.00 | 0.00 | 82 | 1014.5 |
| 20260505152852 | 13 | 300 | 1.6 | 8.0 | 0.00 | 0.00 | 0.00 | 83 | 1014.4 |
| 20260505152352 | 13 | 300 | 3.2 | 8.0 | 0.00 | 0.00 | 0.00 | 84 | 1014.4 |
| 20260505151852 | 13 | 312 | 4.8 | 6.4 | 0.00 | 0.00 | 0.00 | 85 | 1014.4 |
| 20260505151351 | 13 | 290 | 4.8 | 6.4 | 0.00 | 0.00 | 0.00 | 86 | 1014.4 |
| 20260505150853 | 13 | 293 | 1.6 | 4.8 | 0.00 | 0.00 | 0.00 | 87 | 1014.4 |
| 20260505150352 | 13 | 296 | 3.2 | 6.4 | 0.00 | 0.00 | 0.00 | 88 | 1014.4 |
| 20260505140626 | 11 | 295 | 0.0 | 1.6 | 0.00 | 0.00 | 0.00 | 93 | 1014.2 |
| 20260505130124 | 11 | 295 | 0.0 | 0.0 | 0.00 | 0.00 | 0.00 | 91 | 1013.8 |
| 20260505124849 | 11 | 295 | 0.0 | 0.0 | 0.00 | 0.00 | 0.00 | 92 | 1013.9 |